Location: ???????????
(55.5758°N, 38.4970°E)
Time: 18:02:25
(UTC+00:00)

Meteor 2-1 Rocket - Pass Details

Date: 15 November 2025
Orbit: 822 x 912 km, 81.3° (Epoch: 14 December)

Event Time Altitude Azimuth Distance (km) Brightness Sun altitude
Rises 03:04:44 0° 345° (NNW) 3,556 7.2 -16.0°
Reaches altitude 10° 03:07:14 10° 346° (NNW) 2,605 6.5 -15.7°
Maximum altitude 03:13:12 85° 76° (ENE) 909 4.4 -14.8°
Drops below altitude 10° 03:19:02 10° 165° (SSE) 2,541 7.0 -14.0°
Sets 03:21:26 0° 166° (SSE) 3,463 7.8 -13.7°
